User: anonymous   Login
Location: Demmingen
(48.6757°N, 10.4375°E)
Time: 20:09:08
(UTC+00:00)
Language:

H-2A R/B - Orbit

View from above orbital plane
View from above orbital plane
View from above satellite
View from above satellite

Ground track
Ground track

The orbit data is extracted from the following two-line orbital elements,

1 39771U 14029F   24197.85110539  .00008071  00000-0  62220-3 0  9999
2 39771  98.1195 138.4150 0011143 357.6496   2.4673 15.01850572553092
Epoch (UTC): 15 July 2024 20:25:35
Eccentricity: 0.0011143
inclination: 98.1195°
perigee height: 553 km
apogee height: 569 km
right ascension of ascending node: 138.4150°
argument of perigee: 357.6496°
revolutions per day: 15.01850572
mean anomaly at epoch: 2.4673°
orbit number at epoch: 55309

The dashed part of the orbit path shows where the satellite is in the earth's shadow,  

DLR